TimeEST,TemperatureF,Dew PointF,Humidity,Sea Level PressureIn,VisibilityMPH,Wind Direction,Wind SpeedMPH,Gust SpeedMPH,PrecipitationIn,Events,Conditions,WindDirDegrees,DateUTC
12:15 AM,37.6,22.5,54,30.05,10.0,Calm,Calm,-,N/A,,Clear,0,2013-02-01 05:15:00
12:35 AM,37.6,25.5,62,30.06,10.0,Calm,Calm,-,N/A,,Clear,0,2013-02-01 05:35:00
12:55 AM,37.6,24.6,60,30.05,10.0,SSW,3.5,-,N/A,,Clear,210,2013-02-01 05:55:00
1:15 AM,37.6,25.9,63,30.05,10.0,SSW,3.5,-,N/A,,Clear,210,2013-02-01 06:15:00
1:35 AM,37.6,24.8,60,30.05,10.0,SSW,5.8,-,N/A,,Clear,200,2013-02-01 06:35:00
1:55 AM,37.6,23.9,58,30.05,10.0,SSW,3.5,-,N/A,,Clear,200,2013-02-01 06:55:00
2:15 AM,37.6,24.6,60,30.03,10.0,SSW,4.6,-,N/A,,Clear,200,2013-02-01 07:15:00
2:35 AM,37.6,24.8,60,30.03,10.0,SSW,4.6,-,N/A,,Clear,200,2013-02-01 07:35:00
2:55 AM,37.6,25.7,62,30.03,10.0,SSW,4.6,-,N/A,,Clear,210,2013-02-01 07:55:00
3:15 AM,37.6,25.7,62,30.02,10.0,SSW,6.9,-,N/A,,Clear,210,2013-02-01 08:15:00
3:35 AM,37.6,25.5,62,30.01,10.0,SSW,4.6,-,N/A,,Clear,200,2013-02-01 08:35:00
3:55 AM,37.6,25.7,62,29.99,10.0,South,5.8,-,N/A,,Clear,190,2013-02-01 08:55:00
4:15 AM,37.6,25.9,63,29.98,10.0,South,6.9,-,N/A,,Clear,190,2013-02-01 09:15:00
4:55 AM,37.6,25.7,62,29.97,10.0,SSW,8.1,-,N/A,,Clear,210,2013-02-01 09:55:00
5:15 AM,38.8,26.2,61,29.97,10.0,SW,9.2,17.3,N/A,,Clear,220,2013-02-01 10:15:00
5:35 AM,38.8,26.1,60,29.95,10.0,SSW,8.1,-,N/A,,Clear,210,2013-02-01 10:35:00
5:55 AM,39.4,26.4,60,29.95,10.0,SSW,9.2,-,N/A,,Clear,210,2013-02-01 10:55:00
6:15 AM,40.1,26.4,58,29.94,10.0,SSW,9.2,-,N/A,,Clear,210,2013-02-01 11:15:00
6:35 AM,40.1,25.9,57,29.95,10.0,SSW,9.2,-,N/A,,Clear,210,2013-02-01 11:35:00
6:55 AM,40.1,26.2,58,29.95,10.0,SSW,8.1,-,N/A,,Clear,210,2013-02-01 11:55:00
7:15 AM,40.1,25.7,56,29.95,10.0,SSW,6.9,-,N/A,,Clear,210,2013-02-01 12:15:00
7:35 AM,40.1,26.1,57,29.96,10.0,SW,8.1,-,N/A,,Clear,220,2013-02-01 12:35:00
7:55 AM,40.3,25.7,56,29.97,10.0,SW,9.2,-,N/A,,Clear,220,2013-02-01 12:55:00
8:15 AM,42.8,26.8,53,29.98,10.0,SW,8.1,-,N/A,,Clear,220,2013-02-01 13:15:00
8:35 AM,43.9,26.2,50,29.99,10.0,WSW,13.8,-,N/A,,Clear,240,2013-02-01 13:35:00
8:55 AM,46.4,24.1,42,30.00,10.0,WSW,16.1,26.5,N/A,,Clear,250,2013-02-01 13:55:00
9:15 AM,47.7,22.5,37,30.01,10.0,West,21.9,31.1,N/A,,Clear,260,2013-02-01 14:15:00
9:35 AM,47.7,22.8,38,30.02,10.0,West,20.7,32.2,N/A,,Scattered Clouds,280,2013-02-01 14:35:00
9:55 AM,45.1,24.4,44,30.06,10.0,NW,18.4,32.2,N/A,,Mostly Cloudy,320,2013-02-01 14:55:00
10:15 AM,42.8,27.0,54,30.09,10.0,NW,21.9,29.9,N/A,,Scattered Clouds,320,2013-02-01 15:15:00
10:35 AM,40.1,25.0,55,30.11,10.0,WNW,15.0,21.9,N/A,,Mostly Cloudy,300,2013-02-01 15:35:00
10:55 AM,41.2,21.6,46,30.12,10.0,WNW,19.6,24.2,N/A,,Overcast,300,2013-02-01 15:55:00
11:15 AM,42.8,8.4,24,30.12,10.0,WNW,17.3,24.2,N/A,,Mostly Cloudy,300,2013-02-01 16:15:00
11:35 AM,42.8,-10.3,10,30.14,10.0,WNW,17.3,28.8,N/A,,Clear,300,2013-02-01 16:35:00
11:55 AM,42.8,-6.5,12,30.15,10.0,NW,13.8,25.3,N/A,,Clear,320,2013-02-01 16:55:00
12:15 PM,41.9,-14.6,9,30.16,10.0,WNW,19.6,31.1,N/A,,Clear,300,2013-02-01 17:15:00
12:35 PM,-9999,-9999,N/A,30.17,10.0,West,19.6,26.5,N/A,,Clear,280,2013-02-01 17:35:00
12:55 PM,-9999,-9999,N/A,30.17,10.0,WNW,19.6,27.6,N/A,,Clear,300,2013-02-01 17:55:00
1:15 PM,40.3,-40.9,4,30.17,10.0,NW,18.4,27.6,N/A,,Clear,320,2013-02-01 18:15:00
1:35 PM,40.8,-34.4,4,30.18,10.0,NW,15.0,25.3,N/A,,Clear,310,2013-02-01 18:35:00
1:55 PM,40.1,-36.0,4,30.18,10.0,West,17.3,23.0,N/A,,Clear,280,2013-02-01 18:55:00
2:15 PM,40.1,-41.6,4,30.18,10.0,NW,16.1,21.9,N/A,,Clear,310,2013-02-01 19:15:00
2:35 PM,-9999,-9999,N/A,30.19,10.0,NW,11.5,21.9,N/A,,Clear,310,2013-02-01 19:35:00
2:55 PM,40.1,-32.8,4,30.19,10.0,WNW,12.7,23.0,N/A,,Clear,300,2013-02-01 19:55:00
3:15 PM,40.1,-33.9,4,30.20,10.0,WNW,13.8,25.3,N/A,,Clear,290,2013-02-01 20:15:00
3:35 PM,40.1,-35.7,4,30.21,10.0,West,11.5,23.0,N/A,,Clear,280,2013-02-01 20:35:00
3:55 PM,40.1,-31.5,4,30.22,10.0,WNW,15.0,20.7,N/A,,Clear,290,2013-02-01 20:55:00
4:15 PM,40.1,-28.7,5,30.24,10.0,NW,12.7,20.7,N/A,,Clear,310,2013-02-01 21:15:00
4:35 PM,39.7,-26.1,5,30.25,10.0,WNW,8.1,17.3,N/A,,Clear,290,2013-02-01 21:35:00
4:55 PM,38.3,-21.3,7,30.26,10.0,NW,9.2,-,N/A,,Clear,310,2013-02-01 21:55:00
5:15 PM,37.6,-23.6,7,30.27,10.0,NW,8.1,16.1,N/A,,Clear,310,2013-02-01 22:15:00
5:35 PM,37.6,-20.4,8,30.27,10.0,NW,9.2,-,N/A,,Clear,320,2013-02-01 22:35:00
5:55 PM,37.6,-15.9,10,30.28,10.0,NW,5.8,-,N/A,,Clear,320,2013-02-01 22:55:00
6:15 PM,34.9,-11.2,14,30.29,10.0,NNW,4.6,-,N/A,,Clear,330,2013-02-01 23:15:00
6:35 PM,33.6,-10.5,15,30.30,10.0,NNW,3.5,-,N/A,,Clear,330,2013-02-01 23:35:00
6:55 PM,32.5,-9.6,16,30.31,10.0,NNW,3.5,-,N/A,,Clear,330,2013-02-01 23:55:00
7:15 PM,32.5,-10.3,15,30.33,10.0,NW,3.5,-,N/A,,Clear,320,2013-02-02 00:15:00
7:35 PM,32.5,-8.9,17,30.34,10.0,Calm,Calm,-,N/A,,Clear,0,2013-02-02 00:35:00
7:55 PM,32.5,-4.4,20,30.34,10.0,Calm,Calm,-,N/A,,Clear,0,2013-02-02 00:55:00
8:15 PM,31.8,-1.5,24,30.34,10.0,Calm,Calm,-,N/A,,Clear,0,2013-02-02 01:15:00
8:35 PM,32.5,-1.1,24,30.35,10.0,Calm,Calm,-,N/A,,Clear,0,2013-02-02 01:35:00
9:15 PM,30.2,4.8,34,30.36,10.0,Calm,Calm,-,N/A,,Clear,0,2013-02-02 02:15:00
9:35 PM,28.2,1.8,32,30.37,10.0,Calm,Calm,-,N/A,,Clear,0,2013-02-02 02:35:00
9:55 PM,27.5,8.1,44,30.38,10.0,Calm,Calm,-,N/A,,Clear,0,2013-02-02 02:55:00
10:15 PM,29.1,2.1,32,30.39,10.0,NW,3.5,-,N/A,,Clear,310,2013-02-02 03:15:00
10:55 PM,28.4,1.4,31,30.39,10.0,Calm,Calm,-,N/A,,Clear,0,2013-02-02 03:55:00
11:15 PM,28.0,0.9,31,30.40,10.0,Calm,Calm,-,N/A,,Clear,0,2013-02-02 04:15:00
11:35 PM,27.9,0.9,31,30.41,10.0,Calm,Calm,-,N/A,,Clear,0,2013-02-02 04:35:00
11:55 PM,27.5,2.8,35,30.41,10.0,Calm,Calm,-,N/A,,Clear,0,2013-02-02 04:55:00